Regional Weather Roundup
Issued by NWS Glasgow, MT

Home | Current Version | Previous Version | Text Only | Print | Product List | Glossary On
Versions: 1 2 3 4 5 6 7 8 9 10 11 12 13 14 15 16 17 18 19 20 21 22 23 24 25 26 27 28 29 30 31 32 33 34 35 36 37 38 39 40 41 42 43 44 45 46 47 48 49 50
000
ASUS45 KGGW 212315
RWRGGW
HOURLY REGIONAL WEATHER ROUNDUP FOR NORTHEAST MONTANA
NATIONAL WEATHER SERVICE GLASGOW MONTANA
400 PM MST TUE FEB 21 2017

NOTE: "FAIR" INDICATES FEW OR NO CLOUDS BELOW 12,000 FEET WITH NO
SIGNIFICANT WEATHER AND/OR OBSTRUCTIONS TO VISISBILITY.

NORTHEAST MONTANA


CITY           SKY/WX    TMP DP  RH WIND       PRES   REMARKS
GLASGOW        LGT RAIN  40  37  89 W12       29.67R
PLENTYWOOD       N/A     40  34  79 N5          N/A
WOLF POINT     LGT RAIN  42  36  79 CALM      29.67R
JORDAN           N/A     50  38  63 N5        29.60F
WINNETT          N/A     48  36  63 W7G26       N/A
SIDNEY         RAIN      47  40  76 W6        29.65R
GLENDIVE       CLOUDY    50  38  63 N3        29.65R
SCOBEY           N/A     37  27  67 W6        29.68R

FORT PECK REPORTS


CITY           SKY/WX    TMP DP  RH WIND       PRES   REMARKS
FORT PECK        N/A     42  40  92 NW8         N/A
THE PINES        N/A     42  35  76 CALM        N/A

SOUTHEAST MONTANA


CITY           SKY/WX    TMP DP  RH WIND       PRES   REMARKS
BILLINGS       MOSUNNY   58  22  24 W25G35    29.62F
MILES CITY     CLOUDY    50  42  74 E6        29.62S
BAKER          SUNNY     55  35  47 NW3       29.61F
LIVINGSTON     MOSUNNY   53  18  25 W33G48    29.61F

CENTRAL MONTANA


CITY           SKY/WX    TMP DP  RH WIND       PRES   REMARKS
HAVRE          CLOUDY    37  36  96 NW5       29.68R
LEWISTOWN      PTSUNNY   43  33  68 W10       29.65R
GREAT FALLS    CLOUDY    42  37  82 CALM      29.63S
CUT BANK       CLOUDY    34  31  88 E8        29.64R
HELENA         CLOUDY    52  19  27 SW13G18   29.60F
BUTTE          CLOUDY    42  20  41 SW12G25   29.69F
BOZEMAN        CLOUDY    50  24  36 W28G38    29.68R

WESTERN MONTANA


CITY           SKY/WX    TMP DP  RH WIND       PRES   REMARKS
MISSOULA       LGT RAIN  41  35  79 E5        29.69F
KALISPELL      NOT AVBL

NORTH DAKOTA


CITY           SKY/WX    TMP DP  RH WIND       PRES   REMARKS
WILLISTON      CLOUDY    45  32  60 W8        29.63S
DICKINSON      PTSUNNY   50  33  52 NE8       29.62F
MINOT          CLOUDY    45  36  70 SW7       29.63F
BISMARCK       PTSUNNY   49  37  63 E3        29.65F

SOUTHERN SASKATCHEWAN


CITY           SKY/WX    TMP DP  RH WIND       PRES   REMARKS
REGINA         CLOUDY    34  30  86 N8        29.70R
ESTEVAN        PTSUNNY   36  34  93 NW8       29.63S
SWIFT CURRENT  CLOUDY    30  30 100 N8        29.69R




USA.gov is the U.S. government's official web portal to all federal, state and local government web resources and services.